Location: B�rgermoos
(47.6500°N, 9.0667°E)
Time: 06:07:57
(UTC+00:00)

USA 234 - Pass Details

Date: 18 September 2020
Orbit: 1102 x 1106 km, 123.0° (Epoch: 16 October)

Event Time Altitude Azimuth Distance (km) Brightness Sun altitude
Rises 23:42:00 0° 79° (E) 3,920 6.4 -40.7°
Reaches altitude 10° 23:44:37 10° 72° (ENE) 2,963 5.7 -40.6°
Maximum altitude 23:50:36 40° 6° (N) 1,569 4.3 -40.4°
Enters shadow 23:50:38 40° 6° (N) 1,569 4.3 -40.4°
Exits shadow 23:54:28 21° 310° (NW) 2,258 5.0 -40.3°
Drops below altitude 10° 23:56:36 10° 300° (WNW) 2,967 5.6 -40.2°
Sets 23:59:14 0° 293° (WNW) 3,926 6.3 -40.1°
